{"data":{"norad_id":27640,"intl_designator":"2003-001A","name":"CORIOLIS","alt_names":[],"object_type":"PAYLOAD","status":"ACTIVE","operator":null,"country":"US","launch_date":"2003-01-06","launch_site_code":"AFWTR","launch_vehicle":null,"mission":null,"orbit_class":"UNKNOWN","rcs_meters":5.0821,"size_class":null,"mass_kg":null,"dimensions":null,"purposes":["science"],"wikipedia_slug":null,"has_3d_model":false,"image_url":null,"decayed_at":null,"tle_current":{"epoch":"2026-09-19T23:19:21.969984Z","epoch_age_seconds":60073,"freshness":"FRESH","line1":"1 27640U 03001A   26262.97178206  .00000040  00000+0  39631-4 0  9990","line2":"2 27640  98.7172 268.4277 0013037 302.7517  57.2402 14.19967039227673","mean_motion":14.19967039,"eccentricity":0.0013037,"inclination_deg":98.7172,"raan_deg":268.4277,"arg_perigee_deg":302.7517,"mean_anomaly_deg":57.2402,"bstar":3.9631e-5,"rev_number":22767,"period_min":101.41080464897,"perigee_km":816.07293054859,"apogee_km":834.8556004883,"semimajor_km":7203.6012655184,"source":"CELESTRAK","updated_at":"2026-09-20T09:00:47.140955Z"}}}